When you browse on this site, cookies collect data to enhance your experience and personalize the content and advertising you see.
Visit our Privacy Policy to learn more. By continuing to use the site, you agree to this use of cookies and data.
  • In Hungary
  • List of Countries
  • For 7 days
  • Water Temperature
  • Satellite Maps
  • Weather Map
  • News
  • Weather Widgets
  • user-avatar
    Login

    Hourly Weather Silistra

    Today, 13 December, Thursday

    Time Temperature Precipitation Wind Pressure Humidity
    00:00 -1°C° 0 mm 3 mps 759 mmHg 90%
    01:00 -1°C° 0 mm 3 mps 760 mmHg 90%
    02:00 -1°C° 0 mm 2 mps 759 mmHg 90%
    03:00 -1°C° 0 mm 3 mps 759 mmHg 90%
    04:00 -1°C° 0 mm 3 mps 759 mmHg 89%
    05:00 -1°C° 0 mm 3 mps 760 mmHg 88%
    06:00 -1°C° 0 mm 3 mps 760 mmHg 87%
    07:00 -1°C° 0 mm 3 mps 760 mmHg 87%
    08:00 -2°C° 0 mm 3 mps 760 mmHg 86%
    09:00 -1°C° 0 mm 4 mps 760 mmHg 79%
    10:00 0°C° 0 mm 4 mps 760 mmHg 72%
    11:00 +1°C° 0 mm 5 mps 760 mmHg 65%
    12:00 +2°C° 0 mm 5 mps 760 mmHg 63%
    13:00 +3°C° 0 mm 4 mps 759 mmHg 61%
    14:00 +4°C° 0 mm 4 mps 759 mmHg 59%
    15:00 +3°C° 0 mm 4 mps 759 mmHg 64%
    16:00 +1°C° 0 mm 3 mps 760 mmHg 70%
    17:00 +1°C° 0 mm 2 mps 760 mmHg 75%
    18:00 +1°C° 0 mm 2 mps 760 mmHg 77%
    19:00 +1°C° 0 mm 2 mps 760 mmHg 78%
    20:00 -1°C° 0 mm 2 mps 760 mmHg 80%
    21:00 -1°C° 0 mm 2 mps 760 mmHg 79%
    22:00 -1°C° 0 mm 2 mps 760 mmHg 79%
    23:00 -1°C° 0 mm 2 mps 760 mmHg 79%

    Tomorrow, 14 December, Friday

    Time Temperature Precipitation Wind Pressure Humidity
    00:00 -1°C° 0 mm 2 mps 760 mmHg 78%
    01:00 +1°C° 0 mm 1 mps 760 mmHg 78%
    02:00 +1°C° 0 mm 1 mps 761 mmHg 77%
    03:00 +1°C° 0 mm 1 mps 761 mmHg 76%
    04:00 +1°C° 0 mm 1 mps 761 mmHg 75%
    05:00 +1°C° 0 mm 1 mps 761 mmHg 74%
    06:00 0°C° 0 mm 0 mps 761 mmHg 74%
    07:00 0°C° 0 mm 0 mps 761 mmHg 73%
    08:00 0°C° 0 mm 0 mps 761 mmHg 73%
    09:00 +2°C° 0 mm 1 mps 762 mmHg 68%
    10:00 +3°C° 0 mm 1 mps 762 mmHg 63%
    11:00 +5°C° 0 mm 1 mps 762 mmHg 58%
    12:00 +4°C° 0 mm 2 mps 762 mmHg 58%
    13:00 +4°C° 0 mm 2 mps 762 mmHg 58%
    14:00 +5°C° 0 mm 2 mps 762 mmHg 58%
    15:00 +4°C° 0 mm 2 mps 762 mmHg 63%
    16:00 +3°C° 0 mm 2 mps 762 mmHg 68%
    17:00 +1°C° 0 mm 3 mps 762 mmHg 73%
    18:00 +1°C° 0.1 mm 3 mps 762 mmHg 75%
    19:00 +1°C° 0.1 mm 3 mps 762 mmHg 77%
    20:00 +1°C° 0.1 mm 3 mps 763 mmHg 79%
    21:00 +1°C° 0.6 mm 3 mps 763 mmHg 81%
    22:00 0°C° 0.6 mm 4 mps 763 mmHg 84%
    23:00 +1°C° 0.6 mm 4 mps 763 mmHg 86%

    Day after tomorrow, 15 December, Saturday

    Time Temperature Precipitation Wind Pressure Humidity
    00:00 +1°C° 0.8 mm 4 mps 762 mmHg 88%
    01:00 +1°C° 0.8 mm 5 mps 762 mmHg 90%
    02:00 +1°C° 0.8 mm 5 mps 762 mmHg 91%
    03:00 +1°C° 0.8 mm 5 mps 762 mmHg 92%
    04:00 +1°C° 0.8 mm 5 mps 761 mmHg 92%
    05:00 +1°C° 0.8 mm 5 mps 761 mmHg 93%
    06:00 +1°C° 0.7 mm 5 mps 761 mmHg 93%
    07:00 +2°C° 0.7 mm 5 mps 761 mmHg 93%
    08:00 +2°C° 0.7 mm 5 mps 761 mmHg 94%
    09:00 +2°C° 0.7 mm 5 mps 761 mmHg 94%
    10:00 +2°C° 0.7 mm 5 mps 761 mmHg 94%
    11:00 +3°C° 0.7 mm 5 mps 761 mmHg 95%
    12:00 +3°C° 0.5 mm 5 mps 760 mmHg 95%
    13:00 +3°C° 0.5 mm 5 mps 760 mmHg 95%
    14:00 +5°C° 0.5 mm 5 mps 759 mmHg 96%
    15:00 +5°C° 0.2 mm 4 mps 759 mmHg 96%
    16:00 +5°C° 0.2 mm 4 mps 759 mmHg 97%
    17:00 +5°C° 0.2 mm 4 mps 759 mmHg 97%
    18:00 +5°C° 0.3 mm 4 mps 759 mmHg 97%
    19:00 +5°C° 0.3 mm 3 mps 758 mmHg 97%
    20:00 +5°C° 0.3 mm 3 mps 758 mmHg 97%
    21:00 +7°C° 0.2 mm 3 mps 758 mmHg 97%
    22:00 +7°C° 0.2 mm 3 mps 758 mmHg 96%
    23:00 +7°C° 0.2 mm 3 mps 758 mmHg 96%

    16 December, Sunday

    Time Temperature Precipitation Wind Pressure Humidity
    00:00 +7°C° 0.4 mm 3 mps 757 mmHg 95%
    01:00 +7°C° 0.4 mm 3 mps 757 mmHg 95%
    02:00 +8°C° 0.4 mm 3 mps 757 mmHg 94%
    03:00 +8°C° 0.2 mm 3 mps 757 mmHg 93%
    04:00 +8°C° 0.2 mm 3 mps 756 mmHg 93%
    05:00 +8°C° 0.2 mm 3 mps 756 mmHg 92%
    06:00 +8°C° 0.3 mm 3 mps 756 mmHg 93%
    07:00 +8°C° 0.3 mm 3 mps 756 mmHg 93%
    08:00 +8°C° 0.3 mm 3 mps 757 mmHg 93%
    09:00 +8°C° 0.6 mm 3 mps 757 mmHg 93%
    10:00 +8°C° 0.6 mm 3 mps 757 mmHg 93%
    11:00 +9°C° 0.6 mm 3 mps 757 mmHg 93%
    12:00 +8°C° 0.5 mm 3 mps 757 mmHg 93%
    13:00 +8°C° 0.5 mm 3 mps 756 mmHg 92%
    14:00 +8°C° 0.5 mm 3 mps 756 mmHg 92%
    15:00 +7°C° 0.6 mm 3 mps 757 mmHg 92%
    16:00 +5°C° 0.6 mm 4 mps 757 mmHg 92%
    17:00 +4°C° 0.6 mm 4 mps 757 mmHg 92%
    18:00 +3°C° 0.5 mm 4 mps 757 mmHg 91%
    19:00 +3°C° 0.5 mm 4 mps 758 mmHg 90%
    20:00 +1°C° 0.5 mm 4 mps 758 mmHg 90%
    21:00 +1°C° 0.3 mm 4 mps 758 mmHg 90%
    22:00 +1°C° 0.3 mm 5 mps 758 mmHg 89%
    23:00 0°C° 0.3 mm 5 mps 759 mmHg 89%

    17 December, Monday

    Time Temperature Precipitation Wind Pressure Humidity
    00:00 0°C° 0.1 mm 4 mps 759 mmHg 89%
    01:00 0°C° 0.1 mm 4 mps 759 mmHg 88%
    02:00 0°C° 0.1 mm 4 mps 759 mmHg 88%
    03:00 0°C° 0.1 mm 4 mps 759 mmHg 87%
    04:00 0°C° 0.1 mm 4 mps 758 mmHg 87%
    05:00 0°C° 0.1 mm 4 mps 758 mmHg 86%
    06:00 0°C° 0.2 mm 3 mps 759 mmHg 87%
    07:00 0°C° 0.2 mm 3 mps 759 mmHg 87%
    08:00 0°C° 0.2 mm 3 mps 759 mmHg 88%
    09:00 0°C° 0.3 mm 3 mps 759 mmHg 88%
    10:00 0°C° 0.3 mm 3 mps 759 mmHg 88%
    11:00 +1°C° 0.3 mm 3 mps 759 mmHg 87%
    12:00 +1°C° 0.3 mm 3 mps 759 mmHg 88%
    13:00 +1°C° 0.3 mm 3 mps 759 mmHg 88%
    14:00 +1°C° 0.3 mm 3 mps 759 mmHg 89%
    15:00 +2°C° 0.2 mm 2 mps 759 mmHg 89%
    16:00 +2°C° 0.2 mm 2 mps 760 mmHg 90%
    17:00 +2°C° 0.2 mm 2 mps 760 mmHg 91%
    18:00 +2°C° 0.2 mm 2 mps 760 mmHg 91%
    19:00 +2°C° 0.2 mm 2 mps 760 mmHg 92%
    20:00 +1°C° 0.2 mm 3 mps 761 mmHg 92%
    21:00 +1°C° 0.4 mm 3 mps 761 mmHg 92%
    22:00 +1°C° 0.4 mm 3 mps 761 mmHg 92%
    23:00 +1°C° 0.4 mm 3 mps 761 mmHg 92%

    18 December, Tuesday

    Time Temperature Precipitation Wind Pressure Humidity
    00:00 +1°C° 0.4 mm 3 mps 761 mmHg 92%
    01:00 +1°C° 0.4 mm 3 mps 761 mmHg 92%
    02:00 +1°C° 0.4 mm 3 mps 761 mmHg 92%
    03:00 +1°C° 0.3 mm 3 mps 761 mmHg 92%
    04:00 +2°C° 0.3 mm 2 mps 761 mmHg 92%
    05:00 +1°C° 0.3 mm 2 mps 761 mmHg 92%
    06:00 +1°C° 0.1 mm 2 mps 761 mmHg 92%
    07:00 +1°C° 0.1 mm 2 mps 762 mmHg 92%
    08:00 +1°C° 0.1 mm 2 mps 762 mmHg 92%
    09:00 +1°C° 0 mm 2 mps 762 mmHg 91%
    10:00 +1°C° 0 mm 2 mps 762 mmHg 90%
    11:00 +2°C° 0 mm 2 mps 762 mmHg 89%
    12:00 +2°C° 0 mm 2 mps 762 mmHg 88%
    13:00 +2°C° 0 mm 2 mps 762 mmHg 88%
    14:00 +2°C° 0 mm 2 mps 762 mmHg 87%
    15:00 +2°C° 0 mm 2 mps 762 mmHg 88%
    16:00 +2°C° 0 mm 2 mps 762 mmHg 90%
    17:00 +2°C° 0 mm 2 mps 762 mmHg 91%
    18:00 +2°C° 0 mm 2 mps 762 mmHg 91%
    19:00 +2°C° 0 mm 2 mps 762 mmHg 92%
    20:00 +2°C° 0 mm 2 mps 762 mmHg 92%
    21:00 +1°C° 0 mm 2 mps 762 mmHg 92%
    22:00 +1°C° 0 mm 2 mps 762 mmHg 93%
    23:00 +1°C° 0 mm 2 mps 762 mmHg 93%
    Show more